Powrót do katalogu

STARLINK-32387

AktywnyŁącznośćVLEO
NORAD 61704·PAYLOAD·🇺🇸 United States

Wystrzelony Oct 30, 2024 z Vandenberg Space Force Base

Loading…

Następne Przeloty (najbliższe 24 godziny)

TLE

ŚwieżeSource: CelesTrak SupGP

Epoka: Sep 14, 2026, 22:40 UTC

1 61704C 24195T   26257.94493056 -.00008557  00000+0 -25283-3 0  2577
2 61704  53.1592 351.6363 0001142  82.1861 250.4267 15.34394052    19

Śledź STARLINK-32387 w czasie rzeczywistym z AllMySat

Download on the App Store